Content
SEND FEEDBACK

Daily
Averages
Monthly
Summary
United States of America

TRACY, CALIFORNIA


Home > North America > United States > California
Elevation: 61 feet     Latitude: 37 40N     Longitude: 121 18W

WEATHER
 
SELECT A DAY
Number of Records: 189,599;   Date Range: 1/1/95 - 12/28/14
 
SHARE

PRINT THIS DATA

[ ← Previous Day ]
WEATHER ALMANAC - FEBRUARY 13, 2013
[ Next Day → ]
[ °C ]   °F
Weather ElementAverageHighLow
Temperature48.3 °F63 °F (3:55 pm)34 °F (6:55 am)
Dewpoint37.2 °F42.1 °F (9:55 am)32 °F (5:55 am)
Humidity68.7 %96 % (6:55 am)40 % (3:55 pm)
Barometer30.27 in30.34 in (9:55 am)30.21 in (4:55 pm)
Wind Speed2 mph5.8 mph (1:55 pm)
Weather ElementAverage
Visibility8.4 mi
Wind DirectionESE (107.8 °)

Weather ElementTotal
Precipitation---
Heating Degree Days16.5 (Base 65)
Averaged from 23 records on February 13, 2013
WEATHER CONDITIONS BREAKOUT
WIND DIRECTION BREAKOUT
WEATHER BY HOUR - FEBRUARY 13, 2013
[ °C ]   °F
Local TimeTemperatureDewpointHumidityBarometerVisibilityWind DirectionWind SpeedGust SpeedPrecipitationEventsConditions
1:55 AM39.0 °F35.1 °F86 %30.32 in8.0 miEast (100°)3.5 mphClear
2:55 AM36.0 °F34.0 °F93 %30.32 in7.0 miCalmClear
3:55 AM37.9 °F33.1 °F83 %30.30 in8.0 miCalmClear
4:55 AM35.1 °F33.1 °F92 %30.30 in7.0 miCalmClear
5:55 AM35.1 °F32.0 °F89 %30.31 in7.0 miCalmClear
6:55 AM34.0 °F33.1 °F96 %30.32 in5.0 miCalmClear
7:55 AM37.0 °F35.1 °F93 %30.33 in6.0 miCalmClear
8:55 AM45.0 °F39.0 °F80 %30.33 in6.0 miWSW (240°)3.5 mphHaze
9:55 AM48.9 °F42.1 °F77 %30.34 in7.0 miWNW (290°)3.5 mphClear
10:55 AM53.1 °F41.0 °F64 %30.34 in9.0 miWest (270°)3.5 mphClear
11:55 AM57.9 °F41.0 °F53 %30.31 in8.0 miVariable3.5 mphClear
12:55 PM61.0 °F39.0 °F44 %30.28 in8.0 miWNW (290°)3.5 mphClear
1:55 PM61.0 °F39.0 °F44 %30.25 in9.0 miNW (320°)5.8 mphClear
2:55 PM62.1 °F39.9 °F44 %30.23 in9.0 miWest (280°)4.6 mphClear
3:55 PM63.0 °F37.9 °F40 %30.22 in10.0 miCalmClear
4:55 PM61.0 °F39.9 °F46 %30.21 in10.0 miWest (260°)3.5 mphClear
5:55 PM55.9 °F37.0 °F49 %30.21 in10.0 miWSW (250°)3.5 mphClear
6:55 PM53.1 °F37.9 °F57 %30.21 in10.0 miCalmClear
7:55 PM52.0 °F37.9 °F59 %30.21 in10.0 miENE (70°)3.5 mphClear
8:55 PM48.0 °F37.0 °F66 %30.21 in10.0 miCalmClear
9:55 PM46.9 °F37.0 °F68 %30.22 in10.0 miCalmClear
10:55 PM44.1 °F37.0 °F76 %30.22 in10.0 miESE (110°)3.5 mphClear
11:55 PM43.0 °F37.0 °F80 %30.22 in9.0 miCalmClear
Hourly data recorded from KSCK, located miles away from Tracy, California







STORIES FROM OUR PARTNERS